Back to catalog

CZ-3C DEB

LostGTO
NORAD 40825·DEBRIS·🇨🇳 China

Launched Oct 31, 2010 from Xichang Satellite Launch Center

Loading…

TLE

StaleSource: Space-Track

Epoch: Oct 1, 2018, 20:11 UTC

1 40825U 10057AS  18274.84107447 -.00000150  00000-0  64437-3 0  9993
2 40825  21.0786 342.6707 7209070 211.4513  71.1591  2.22614482 29776

Track CZ-3C DEB in real time with AllMySat

Download on the App Store